Hourly Data Report for September 10, 2017

All times are specified in Local Standard Time (LST). Add 1 hour to adjust for Daylight Saving Time where and when it is observed.

CORAL HARBOUR A
NUNAVUT

64°11'36.000" N
83°21'34.000" W
62.20 m
2301002
71915
YZS

Download Data

Hourly Data (September 2017)
Hourly Data Report for September 10, 2017
Temp Definition
°C
Dew Point Temp Definition
°C
Rel Hum Definition
%
Wind Dir Definition
10's deg

Wind Spd Definition
km/h
Visibility Definition
km
Stn Press Definition
kPa
Hmdx Definition


Wind Chill Definition


Weather Definition


TIME
00:00 Legend Double Dagger 0.6 -3.1 76 33 36 24.1 100.62     LegendNANA
01:00 Legend Double Dagger 0.0 -3.4 78 33 37 24.1 100.72   -7 Clear
02:00 Legend Double Dagger -0.4 -3.2 81 32 28 24.1 100.85   -7 LegendNANA
03:00 Legend Double Dagger -0.8 -3.0 85 31 25 24.1 100.94   -7 LegendNANA
04:00 Legend Double Dagger -1.0 -3.0 86 29 24 24.1 101.03   -7 Clear
05:00 Legend Double Dagger -1.4 -3.2 88 33 13 24.1 101.11   -6 LegendNANA
06:00 Legend Double Dagger -1.5 -3.3 88 27 12 24.1 101.20   -6 LegendNANA
07:00 Legend Double Dagger -1.0 -2.8 87 28 19 24.1 101.24   -6 Mainly Clear
08:00 Legend Double Dagger 0.5 -2.2 82 29 14 24.1 101.27     LegendNANA
09:00 Legend Double Dagger 1.2 -2.2 78 27 11 24.1 101.30     LegendNANA
10:00 Legend Double Dagger 2.6 -1.7 73 21 14 24.1 101.31     Mainly Clear
11:00 Legend Double Dagger 4.3 -2.2 63 24 9 24.1 101.30     LegendNANA
12:00 Legend Double Dagger 4.9 -1.6 63 27 17 24.1 101.28     LegendNANA
13:00 Legend Double Dagger 5.5 -2.1 58 21 12 24.1 101.25     Mainly Clear
14:00 Legend Double Dagger 6.2 -2.3 55 22 10 24.1 101.23     LegendNANA
15:00 Legend Double Dagger 6.5 -2.5 53 21 14 24.1 101.17     LegendNANA
16:00 Legend Double Dagger 6.3 -1.9 56 19 15 24.1 101.18     Mainly Clear
17:00 Legend Double Dagger 4.8 0.6 74 19 26 24.1 101.17     LegendNANA
18:00 Legend Double Dagger 3.5 0.8 82 18 26 24.1 101.11     LegendNANA
19:00 Legend Double Dagger 2.4 0.6 88 18 18 24.1 101.08     Mostly Cloudy
20:00 Legend Double Dagger 1.8 0.3 89 16 17 24.1 101.02     LegendNANA
21:00 Legend Double Dagger 1.5 0.1 90 17 18 24.1 101.03     LegendNANA
22:00 Legend Double Dagger 0.3 -0.5 94 8 16 24.1 100.97     Mostly Cloudy
23:00 Legend Double Dagger 0.0 -1.0 93 10 13 24.1 100.90   -4 LegendNANA

Notes on Data Quality.

Legend

  • E = Estimated
  • M = Missing
  • NA = Not Available
  • ‡ = Partner data that is not subject to review by the National Climate Archives
Date modified: